RH
10 11 12 12 12 12 13 12 11 11 11 11 12 14 15 15 15 15 15 15 15 16 16 17 16 14 14 15 17 18 17 16 16 16 17 17 23 39 58 72 78 81 83 84 86 87 89 90 92 93 94 96 97 97 97 97 98 99 97 94 90 84 78 71 64 58 53 49 45 42 39 37 34 32 30 27 27 28 28 29 29 29 28 27 26 25
12 13 13 13 13 13 14 14 13 12 12 13 15 16 16 17 17 15 16 16 15 17 17 17 16 15 16 18 19 19 17 17 18 19 20 20 24 38 57 72 79 84 87 87 89 89 91 93 95 96 96 97 98 97 96 97 97 96 92 87 81 75 69 63 59 54 50 46 43 40 37 35 32 30 28 27 26 26 26 26 26 25 24 23 22 20
13 14 14 15 14 14 15 15 14 13 14 16 16 17 18 17 17 17 16 16 17 18 17 17 18 17 18 20 21 20 19 20 21 20 21 22 27 40 56 71 80 86 89 89 91 92 94 96 97 99 98 96 97 97 97 97 94 89 83 78 72 67 62 58 55 52 48 46 44 42 39 35 32 29 27 26 26 25 24 23 22 21 21 19 18 17
15 15 16 16 15 15 15 15 15 15 16 17 16 17 19 18 19 19 17 18 20 20 19 20 21 19 21 24 23 23 21 21 21 21 22 23 27 40 59 75 84 88 90 91 93 95 97 98 97 98 98 97 98 98 96 92 87 80 75 69 64 60 57 54 52 49 48 46 44 42 39 35 31 29 27 26 25 24 22 21 19 18 17 16 15 13
16 16 16 16 16 15 15 15 16 17 17 17 17 19 20 18 20 20 19 19 18 20 23 25 24 19 22 28 24 21 23 22 23 24 24 24 28 40 57 71 82 87 90 93 95 98 99 98 97 97 99 100 98 94 89 84 78 72 67 62 59 58 56 53 51 51 49 46 43 40 36 33 31 29 27 25 23 21 18 16 14 13 11 10 9 8
17 17 17 17 16 15 16 17 16 18 18 17 18 20 20 19 21 21 20 21 20 24 25 28 38 32 21 25 25 22 25 25 25 26 26 28 34 44 56 69 81 88 92 96 98 99 99 99 99 99 100 97 91 86 81 75 69 65 62 60 59 58 56 55 53 52 49 46 43 39 36 33 30 26 23 19 15 12 10 8 7 6 6 5 6 7
17 17 17 17 17 17 18 17 18 19 19 19 20 21 21 21 23 22 20 23 24 26 24 26 44 45 26 23 27 26 27 27 28 30 32 36 43 53 66 78 87 92 96 98 98 99 100 100 100 98 95 89 83 77 72 67 64 63 61 60 59 57 56 55 53 50 48 45 41 37 33 28 23 18 14 11 8 7 5 5 5 5 5 6 8 11
17 17 17 17 18 18 19 18 19 20 20 21 21 22 23 22 23 21 20 24 22 24 26 23 34 46 38 29 28 28 29 30 32 35 40 47 55 68 80 87 93 98 99 98 98 99 100 100 97 92 86 81 74 68 65 63 62 62 61 59 57 56 56 54 52 48 44 39 35 31 26 20 15 11 9 7 6 6 6 6 6 7 7 7 12 17
17 17 18 19 19 19 20 20 21 22 22 23 23 24 24 23 23 22 22 23 22 28 32 26 30 44 41 30 29 30 31 32 37 43 50 59 70 82 90 95 98 98 96 95 98 99 98 95 89 83 77 71 65 63 62 62 63 63 61 60 58 56 55 53 48 43 36 32 30 26 20 14 10 8 8 8 8 8 8 8 8 8 8 9 15 22
17 18 19 20 20 21 21 23 23 24 24 24 25 24 22 23 24 24 26 24 25 37 39 28 30 40 38 30 31 34 32 35 42 49 57 70 83 92 97 99 96 94 94 97 99 96 90 84 79 74 67 62 61 63 65 66 66 66 63 62 59 56 55 50 42 35 28 27 27 22 15 10 9 9 9 9 9 9 9 9 9 9 9 11 19 28
19 20 21 21 22 23 23 25 25 25 26 25 25 24 23 26 25 25 28 24 28 42 38 25 27 37 41 36 32 33 35 39 44 53 66 79 89 96 97 93 90 93 98 98 95 86 79 75 71 68 63 62 65 66 68 68 66 65 63 61 58 57 53 42 35 28 20 21 21 15 11 11 11 12 11 11 10 9 9 10 10 10 10 15 25 33
20 21 22 22 23 24 25 26 25 25 26 26 25 25 26 26 27 28 29 29 37 42 33 26 29 37 43 40 33 35 38 39 45 58 75 86 91 92 91 89 92 98 97 90 84 76 71 70 69 68 68 68 69 68 68 67 66 67 66 65 63 58 47 39 38 28 13 14 17 12 13 14 13 14 13 13 11 10 10 11 11 11 13 20 30 35
20 22 23 24 24 25 27 26 26 26 25 26 26 26 31 37 40 41 40 42 45 41 33 32 35 39 41 37 35 40 42 43 49 61 74 82 86 89 92 96 98 94 86 79 74 71 71 72 72 72 70 69 67 67 68 69 71 72 71 71 65 54 46 50 54 36 13 12 15 13 15 15 15 15 14 13 12 11 12 12 13 13 18 25 32 34
21 23 23 24 24 26 28 27 28 28 26 28 28 29 37 46 54 57 52 48 48 42 36 36 42 44 39 37 41 45 46 50 57 65 74 81 89 95 97 97 90 82 77 77 78 77 77 76 74 72 69 67 66 69 73 75 76 77 76 71 62 56 57 63 63 43 20 14 15 16 18 17 16 15 14 13 13 12 13 14 15 18 25 31 33 32
27 27 24 25 26 27 29 29 30 29 28 30 30 33 36 39 52 62 56 53 56 51 43 43 48 46 41 44 48 47 48 53 59 67 76 85 94 96 92 86 82 80 82 84 84 81 80 77 74 71 69 70 76 83 85 84 85 84 79 73 70 70 70 66 56 40 24 16 17 20 20 18 16 15 14 13 13 13 16 17 20 26 31 33 33 34
30 28 25 26 28 28 30 29 29 30 30 32 32 34 37 37 44 53 52 50 54 57 52 46 45 43 42 45 45 47 51 55 62 73 79 88 91 86 82 81 84 89 91 90 87 85 83 78 73 73 76 83 93 98 96 90 89 86 81 82 82 76 67 58 44 32 26 22 21 22 20 17 16 15 13 13 13 15 19 24 28 32 34 35 41 52
31 27 24 28 28 29 32 30 31 32 31 33 34 34 39 42 44 49 51 46 48 61 58 44 43 45 44 47 50 54 58 61 70 78 81 86 84 79 81 85 90 94 91 89 91 90 84 77 75 79 85 91 95 97 97 94 93 92 91 89 80 67 60 51 36 30 31 27 24 23 21 18 16 15 13 13 14 17 23 29 33 37 45 54 65 78
34 29 24 28 29 30 32 31 32 35 34 34 37 38 41 45 46 49 54 56 60 69 59 45 48 51 49 55 59 60 66 72 78 80 81 81 80 84 88 90 93 92 90 94 95 88 80 75 78 84 89 94 96 98 100 100 100 98 92 81 69 64 60 46 35 35 33 28 29 29 23 18 15 14 13 13 16 20 27 33 41 55 70 79 86 92
37 34 28 27 30 30 32 34 34 35 37 38 40 43 45 50 52 51 59 69 75 77 66 52 51 52 52 56 59 67 76 82 87 88 86 86 90 95 95 94 94 93 97 101 90 79 79 83 89 93 96 100 101 101 100 101 99 91 81 73 69 67 57 42 39 41 34 30 35 32 23 18 15 14 14 14 18 24 32 44 61 78 89 93 95 98
37 41 35 28 30 32 32 35 36 36 39 41 44 48 49 53 56 56 60 64 72 80 76 65 59 56 55 58 65 79 88 92 96 94 93 97 99 99 98 99 98 98 100 90 75 78 91 97 99 98 97 99 100 100 101 99 93 83 77 75 72 63 51 45 48 46 37 34 34 28 21 17 15 14 14 16 21 31 45 63 81 93 97 98 99 100
36 43 42 31 29 34 35 37 38 39 42 45 50 53 54 56 57 60 60 55 62 75 77 78 75 60 57 66 75 85 94 97 98 98 102 103 98 97 100 96 90 89 84 73 75 93 102 100 99 97 98 100 100 101 102 98 91 86 83 77 67 57 51 53 56 51 44 39 34 27 21 17 15 14 15 18 27 43 63 82 93 98 101 101 100 99
37 42 43 36 32 34 37 40 41 42 46 51 54 55 57 59 59 67 73 62 60 68 72 84 87 68 61 70 76 87 95 97 101 104 102 95 91 91 82 71 69 71 70 75 89 101 99 97 98 98 100 101 101 103 103 100 97 90 83 73 63 59 60 63 63 59 52 43 33 26 20 17 16 15 16 25 41 61 79 92 97 99 101 100 99 99
36 40 41 39 36 36 39 42 42 45 47 48 51 53 56 60 63 76 84 73 69 71 69 77 81 68 63 70 80 91 97 99 101 97 92 88 84 75 61 56 61 67 76 88 98 100 98 97 97 99 102 103 102 101 100 100 97 89 82 74 69 70 71 70 69 66 57 43 30 22 18 16 16 16 21 37 58 77 90 97 100 100 101 100 99 100
34 38 40 38 35 34 38 42 43 45 46 46 49 52 58 63 65 69 71 71 77 79 75 82 83 69 64 76 87 94 96 96 93 89 90 87 74 65 65 67 69 76 88 95 96 93 91 93 95 94 93 95 96 95 98 100 97 90 81 71 67 70 70 72 75 71 55 38 25 19 17 17 15 19 32 51 72 88 97 100 101 100 100 100 100 100
35 38 41 43 46 46 45 45 46 46 50 52 53 56 62 64 62 60 60 66 75 74 75 87 88 73 72 84 91 95 95 90 88 91 89 84 80 78 78 80 84 90 97 101 96 79 65 64 64 59 69 89 97 97 98 98 92 79 64 52 51 57 65 74 77 64 43 29 21 17 18 17 17 27 45 64 82 94 100 102 102 101 101 100 100 100
37 39 42 49 58 63 61 57 54 53 55 56 55 62 69 66 61 60 62 69 77 81 85 90 88 83 84 90 93 96 95 91 93 91 79 80 87 78 74 87 96 99 102 102 86 54 32 29 30 43 72 92 92 84 79 75 67 53 41 40 51 63 69 68 58 40 26 20 19 18 17 17 25 40 57 74 89 98 101 102 102 101 101 100 100 99
39 41 43 48 52 56 58 55 52 55 58 58 60 66 71 69 65 66 73 81 89 94 91 84 88 96 94 95 100 98 94 95 94 85 75 78 73 63 75 98 102 100 94 74 47 25 21 32 44 61 72 67 59 58 55 52 51 50 52 58 61 59 52 40 29 22 19 19 19 18 17 24 38 54 68 84 95 99 100 101 99 100 100 100 100 99
40 42 45 48 47 48 50 49 52 57 58 61 68 69 67 67 68 71 81 91 97 100 93 83 91 103 99 98 103 100 98 98 91 83 77 61 42 51 86 105 101 89 62 33 23 24 34 49 55 54 50 45 49 57 61 67 72 72 69 59 45 33 25 21 21 21 20 21 19 17 22 35 51 66 81 93 98 99 101 101 100 100 101 100 100 100
42 45 47 48 46 43 46 49 53 57 59 65 71 69 63 64 69 76 83 92 100 103 99 94 97 102 100 100 100 99 100 91 72 63 53 28 25 62 98 100 85 59 31 22 28 29 34 41 42 43 52 60 67 74 81 85 78 61 46 34 26 22 22 22 23 22 21 20 18 22 33 47 62 79 93 98 98 100 102 102 102 103 103 102 100 100
43 47 49 51 45 39 44 51 52 55 60 62 64 64 61 62 72 81 84 91 97 97 97 99 100 98 98 100 101 94 80 57 36 28 18 14 47 91 98 76 51 30 23 29 31 30 33 34 34 43 57 65 74 82 82 71 54 38 29 26 26 24 24 24 23 22 21 18 21 32 46 60 76 90 99 99 98 100 101 101 103 103 104 104 101 101
46 48 49 53 47 38 44 53 52 53 55 55 58 61 61 64 73 80 82 88 94 96 98 99 100 99 97 99 95 69 37 20 18 17 13 33 77 95 70 42 29 25 30 32 30 33 38 36 40 55 71 82 88 85 69 51 38 32 29 27 27 26 25 25 23 21 19 21 31 45 59 75 90 98 100 99 98 99 100 99 101 102 103 103 102 102
48 49 49 54 54 44 45 53 51 46 48 52 55 59 65 72 76 77 83 93 99 101 100 98 101 101 98 95 72 32 17 31 36 24 25 55 84 74 42 29 29 29 32 30 30 41 53 59 68 80 89 87 77 63 49 38 31 30 30 29 28 28 25 23 21 19 21 31 45 59 76 91 99 100 100 99 98 100 100 99 99 101 102 101 101 102
49 50 48 54 58 49 47 55 51 43 50 57 57 61 70 76 79 82 89 96 99 99 99 100 100 95 92 85 50 18 34 59 47 26 36 63 71 49 30 30 31 30 31 30 37 55 68 70 71 74 70 56 44 39 36 33 32 32 31 30 27 25 23 20 19 21 30 46 60 76 92 100 101 101 100 98 100 102 102 100 100 101 101 102 101 101
49 51 50 55 60 53 50 57 51 46 56 62 59 66 73 76 84 92 92 93 93 90 89 88 89 89 84 66 35 24 44 50 29 20 38 56 52 35 27 29 29 29 29 28 38 51 50 43 43 46 43 35 33 34 32 32 33 31 29 27 24 22 20 18 21 31 45 60 77 92 101 101 101 103 102 100 102 103 102 102 102 101 101 101 101 100
49 51 51 54 60 59 57 64 63 57 60 63 64 71 74 75 80 82 80 83 85 81 79 83 90 88 65 31 13 19 28 23 13 17 28 35 33 27 26 28 27 27 27 26 32 33 28 27 30 32 33 33 33 32 30 31 29 25 24 23 20 19 19 22 32 46 57 72 90 101 103 102 102 102 101 101 102 103 104 104 103 102 101 100 100 100
48 51 52 53 59 61 66 79 82 68 59 63 67 70 72 76 81 82 83 85 85 82 85 93 93 71 33 9 8 13 13 11 11 13 17 21 23 24 27 27 25 27 28 27 26 24 24 26 29 31 33 33 31 30 28 26 23 22 21 19 19 20 24 34 45 52 64 84 100 103 101 102 102 99 100 101 100 102 104 104 103 101 100 100 100 100
48 51 53 56 60 65 71 79 77 64 59 63 64 67 75 83 92 100 98 88 84 88 93 96 83 46 13 6 10 10 11 13 11 10 14 18 20 22 23 22 23 27 28 24 21 22 24 25 27 30 30 28 27 27 24 22 22 21 19 18 21 25 33 45 50 55 74 95 102 100 100 102 101 99 100 100 100 101 102 101 101 100 100 100 100 100
49 51 54 59 64 69 75 80 78 72 68 63 61 70 79 81 87 95 93 84 83 88 91 87 63 26 7 11 13 11 13 14 12 12 16 19 20 20 18 19 23 25 23 20 19 20 23 23 24 25 24 24 25 24 25 27 26 24 23 23 27 35 44 50 51 62 86 100 99 97 100 101 99 99 100 100 100 100 100 100 100 100 100 100 100 100
49 51 54 61 66 70 77 86 86 78 67 62 67 77 82 82 81 80 77 74 74 80 87 77 43 12 8 16 15 13 16 18 17 17 18 21 21 18 18 20 23 21 18 18 18 20 21 20 20 22 25 28 32 37 40 40 37 35 33 33 37 44 49 49 52 69 92 98 95 97 100 99 99 100 100 100 100 100 100 100 100 100 100 100 100 100
48 52 55 60 66 69 77 85 83 72 64 65 72 79 82 83 81 82 85 79 73 82 87 61 23 7 12 15 13 14 18 22 22 19 19 20 19 17 19 22 21 18 15 16 17 18 18 20 25 33 41 50 58 61 58 52 50 48 44 42 44 47 48 48 54 74 93 96 93 97 100 98 98 99 100 101 100 100 100 100 100 100 100 100 100 101
49 53 56 59 64 68 76 84 80 69 65 71 79 84 84 79 78 90 99 88 80 87 75 36 9 9 13 12 13 15 15 18 20 18 17 17 16 16 19 20 19 16 14 15 16 16 19 27 38 51 65 74 77 73 66 60 56 53 49 48 46 46 48 48 55 77 94 94 92 97 100 98 98 99 100 101 100 100 100 100 100 100 100 100 101 101
53 55 56 60 64 67 72 79 76 67 65 71 79 82 81 81 87 94 91 82 85 83 51 14 5 11 11 11 14 13 13 15 16 16 16 15 16 17 17 17 17 14 12 14 14 16 25 38 52 67 80 84 82 77 70 63 57 51 48 45 43 45 47 47 56 78 93 91 91 97 99 99 100 99 99 101 100 100 100 100 100 101 99 100 101 101
55 59 60 60 63 67 71 75 77 75 72 73 77 79 77 82 89 86 76 76 78 59 25 5 7 11 10 12 13 12 13 14 13 14 15 14 16 17 17 17 16 12 11 13 14 19 31 48 67 81 87 88 85 80 73 65 58 52 47 44 43 45 47 48 58 79 90 89 90 96 98 99 101 101 100 100 100 101 101 100 100 100 100 100 101 101
53 58 62 63 65 70 72 72 74 78 80 82 89 92 85 79 79 78 78 79 64 32 9 6 9 9 11 12 11 12 13 13 13 14 14 14 16 17 16 16 15 12 11 12 14 21 38 61 81 90 91 91 89 86 81 74 66 59 54 51 48 47 48 52 62 78 88 88 88 94 98 100 102 102 100 99 100 102 102 100 100 100 101 101 100 100
51 55 60 62 65 67 66 64 66 70 74 79 85 83 76 73 75 77 81 78 51 18 5 7 9 9 11 11 10 12 13 13 14 14 14 15 16 17 16 16 15 12 10 10 14 24 47 73 88 91 93 94 92 90 89 84 78 72 68 64 60 57 55 57 66 79 88 87 87 92 98 99 102 102 99 98 100 101 100 100 101 102 101 99 97 99
50 54 58 60 62 61 58 61 66 67 67 73 75 71 68 72 75 76 76 65 35 9 5 9 9 10 10 10 10 12 13 13 13 14 15 15 15 16 17 16 15 12 10 10 13 26 53 79 89 91 94 95 95 95 94 89 86 82 79 77 75 71 67 65 71 81 86 86 87 91 97 101 102 101 98 97 98 99 99 100 101 100 99 96 97 101
49 52 54 57 60 59 56 60 66 66 66 71 72 68 69 72 73 75 73 54 24 6 6 9 9 9 9 10 11 11 12 13 13 13 15 15 16 17 17 16 16 13 10 10 12 27 57 81 88 91 94 94 97 98 96 92 90 88 87 86 85 83 79 76 77 83 87 87 87 90 96 101 103 102 100 99 99 99 99 100 100 99 98 98 100 103
48 50 52 54 55 56 57 59 62 63 65 69 69 67 70 73 74 75 70 46 17 6 7 8 8 9 9 9 10 11 11 13 13 13 15 15 16 17 17 17 17 14 11 10 11 26 57 82 88 90 93 93 95 97 96 96 94 92 92 92 91 92 90 85 82 87 89 87 86 89 93 97 100 102 102 100 100 100 100 101 101 100 99 99 99 100
46 47 51 52 51 52 56 59 60 60 61 64 66 67 70 74 74 74 66 40 14 5 7 7 8 9 8 9 10 10 11 12 13 13 15 15 16 17 17 17 17 15 12 10 10 23 55 81 87 88 91 91 91 93 96 99 99 96 95 96 97 99 98 92 89 91 92 90 89 89 89 92 98 101 100 99 100 100 99 99 97 97 96 95 94 96
45 45 49 51 49 51 55 58 59 59 60 62 65 67 70 72 72 70 60 37 14 6 7 7 7 8 8 9 9 9 10 12 12 13 15 15 16 17 17 18 18 16 13 11 9 19 49 77 86 85 88 90 88 90 95 100 101 99 98 100 102 102 100 96 94 95 95 93 91 88 86 90 96 99 97 97 97 95 93 92 94 97 98 96 96 96
44 45 48 49 48 50 54 56 57 59 60 62 64 67 69 70 70 67 57 37 16 7 6 6 7 8 7 8 9 9 10 11 12 12 14 15 15 17 17 18 19 17 14 12 9 14 39 71 85 85 86 87 86 89 96 101 101 99 100 102 104 101 97 96 97 98 97 95 91 88 85 88 94 98 97 95 93 93 94 95 98 101 101 98 96 96
Wind_Speed
16 13 14 19 21 21 21 21 21 22 23 25 27 30 33 36 39 39 36 35 36 43 47 45 48 55 54 50 43 35 29 26 24 26 29 32 34 32 29 32 35 37 39 39 40 41 42 43 42 41 40 39 38 37 37 38 38 40 42 45 48 50 53 56 58 60 61 63 64 66 67 69 69 70 71 73 75 76 76 75 75 75 76 76 75 75
15 13 18 22 22 22 22 22 23 23 24 26 28 31 35 36 40 40 36 37 40 43 49 50 53 57 52 46 38 25 20 20 22 25 28 31 32 29 27 30 35 37 39 40 41 42 42 42 42 40 39 38 37 36 36 38 40 43 46 49 52 55 58 61 62 64 65 66 67 67 67 68 68 69 69 71 72 73 74 76 77 78 78 78 77 77
15 17 23 23 22 23 22 22 24 24 25 27 29 32 35 35 39 44 42 42 43 44 51 51 52 55 50 39 24 16 19 22 24 27 29 31 31 27 25 29 34 37 39 41 42 43 42 41 41 39 36 35 35 36 37 40 43 47 52 55 59 62 63 64 65 66 67 66 65 64 64 66 67 68 68 69 70 72 73 75 77 79 80 80 79 79
18 21 24 23 23 23 22 23 24 25 26 27 30 32 34 34 37 43 47 47 45 46 49 46 47 53 43 26 17 18 26 28 27 30 30 30 31 27 25 27 33 38 40 42 42 41 41 39 37 35 34 34 35 38 41 45 50 55 59 63 65 65 64 65 65 65 64 63 63 63 65 67 69 70 70 71 72 73 75 76 78 80 81 81 79 78
20 22 23 23 23 22 22 23 24 26 28 28 29 29 32 37 36 40 45 48 50 47 40 35 40 48 36 21 26 32 30 29 29 30 29 28 29 26 26 28 34 39 41 42 41 40 38 35 34 33 33 36 39 43 49 55 60 63 65 66 66 64 63 63 62 61 61 62 64 67 69 71 73 74 74 74 74 74 75 76 77 77 76 74 71 69
21 23 22 21 20 21 22 23 24 26 30 31 29 28 34 38 37 41 43 47 50 41 33 31 26 32 38 31 32 32 27 29 30 28 28 27 26 26 27 30 35 39 42 41 39 37 34 32 32 34 36 41 48 54 59 63 66 67 67 66 64 62 62 61 60 60 61 64 66 68 70 72 73 73 73 71 70 71 72 71 70 68 66 64 62 60
24 24 21 19 18 21 22 23 25 26 31 33 31 32 35 37 39 42 41 40 41 34 35 36 18 20 39 38 29 27 27 30 28 26 27 25 24 25 26 31 36 40 41 37 35 32 30 31 34 38 45 52 59 63 66 68 68 68 67 65 64 63 62 60 60 60 62 64 66 67 68 68 67 66 66 64 64 65 66 65 64 62 60 58 57 56
24 22 18 17 20 23 22 23 26 26 30 32 33 33 35 39 40 39 37 36 37 38 39 36 19 18 28 26 24 28 29 28 27 27 27 25 24 24 26 32 37 38 35 31 30 30 30 35 42 48 56 62 66 68 69 69 69 68 67 67 66 64 62 60 60 61 63 64 65 65 64 62 60 59 59 59 59 60 60 60 59 58 57 55 54 53
24 20 17 19 22 22 21 23 25 25 29 31 32 34 37 39 37 35 34 30 30 32 30 25 15 11 18 22 24 27 27 26 28 29 27 23 21 23 28 32 34 32 29 28 29 32 38 45 52 59 64 67 69 70 71 70 68 66 66 66 65 63 61 61 61 62 64 64 64 62 59 57 56 55 55 55 55 56 56 57 57 55 54 53 51 50
22 17 16 22 22 19 21 23 24 25 27 30 32 36 38 36 37 36 26 22 23 18 13 15 12 6 19 31 25 21 25 28 29 28 24 21 21 24 28 31 29 27 27 29 33 40 47 55 62 66 68 70 71 71 70 68 66 65 64 63 63 62 61 60 61 64 66 64 62 59 56 54 53 53 53 54 54 54 54 55 55 54 52 51 50 49
19 13 16 24 21 20 24 24 26 26 26 30 33 37 40 39 42 34 19 18 17 9 7 14 17 10 13 25 26 26 31 31 29 26 22 21 23 26 28 27 26 26 30 35 42 49 57 64 67 68 69 70 71 70 68 67 66 64 64 63 63 61 59 60 63 67 67 64 60 56 54 53 53 53 53 54 54 53 53 54 54 53 51 50 48 47
19 11 18 26 21 23 29 29 30 29 28 31 30 34 39 40 39 27 18 17 7 7 17 22 25 19 10 20 31 33 34 33 31 26 21 22 25 26 25 24 26 30 38 47 55 63 68 69 67 67 69 70 70 69 67 65 64 62 61 59 58 57 57 61 65 68 66 62 58 55 53 53 53 53 54 54 54 54 54 54 53 52 50 48 46 46
23 14 21 27 23 26 32 35 34 31 32 29 27 33 29 21 21 14 10 11 5 14 26 27 27 22 18 25 31 30 33 34 31 25 22 23 24 23 22 26 33 41 51 61 67 70 70 67 67 68 69 69 69 67 64 62 60 58 56 55 54 55 58 63 66 68 66 61 57 54 53 53 54 54 54 54 54 54 53 53 51 49 47 46 45 44
27 19 24 28 24 27 33 35 34 34 32 24 25 30 17 5 8 6 5 7 9 22 35 34 25 19 20 24 26 29 33 31 28 23 23 24 22 23 28 35 47 58 65 69 69 68 67 67 68 68 68 68 66 63 60 58 55 53 52 52 53 56 60 64 67 68 66 61 58 55 53 53 54 54 54 53 53 53 52 51 48 45 44 43 43 43
22 16 24 28 22 26 33 30 27 30 25 19 24 24 14 11 9 6 6 5 10 25 36 29 15 10 16 23 27 32 32 29 28 24 24 25 24 30 40 52 63 68 68 66 65 65 65 66 66 66 65 63 59 55 52 51 49 49 50 51 54 58 62 65 67 67 65 62 59 54 51 52 53 53 53 52 52 51 49 47 44 42 42 42 42 42
19 18 24 24 20 26 33 28 24 26 20 18 25 22 18 22 15 14 17 18 18 21 21 15 11 15 24 31 35 34 30 29 27 26 27 26 31 43 56 66 68 65 63 62 62 62 62 63 63 61 58 54 48 45 45 46 47 48 50 53 58 61 63 64 65 65 62 60 55 50 50 52 53 52 51 50 50 47 45 43 41 40 41 41 42 43
21 25 26 21 22 31 32 26 23 23 21 22 26 26 26 23 15 17 23 25 22 14 12 14 16 25 30 29 28 26 25 27 26 27 29 34 48 60 65 66 62 60 61 60 60 61 61 60 57 53 50 47 44 43 44 45 46 48 52 56 59 61 62 64 63 61 59 55 50 49 51 53 52 51 49 48 46 44 41 39 39 40 41 42 43 44
22 30 31 24 27 35 32 25 22 21 23 24 25 29 28 19 15 15 14 15 13 8 14 20 22 27 26 18 20 23 25 28 28 31 40 52 62 64 62 61 60 61 60 59 60 60 58 55 51 49 48 47 46 44 43 44 46 51 55 57 60 62 63 63 61 58 55 52 49 51 53 52 51 50 47 45 43 40 39 38 39 40 41 43 43 42
24 28 30 28 31 37 30 23 23 23 23 23 24 28 25 15 15 18 12 10 9 5 11 22 27 24 18 18 26 28 28 30 34 44 55 60 60 59 60 61 61 61 60 60 60 58 54 50 47 46 46 45 43 42 43 48 52 54 56 58 61 62 63 61 58 56 55 52 51 53 54 52 51 48 45 42 40 38 37 38 39 41 42 42 40 37
24 19 22 30 37 36 29 24 25 25 25 27 27 29 27 19 18 22 17 11 10 7 8 19 21 14 17 28 30 27 30 38 47 54 57 57 58 59 61 61 62 61 60 60 58 54 49 45 45 47 47 45 44 46 49 52 53 55 58 60 62 61 60 58 56 55 55 53 52 53 54 52 50 46 42 40 37 36 37 38 40 41 41 38 35 32
26 18 21 35 42 34 27 25 22 20 23 28 29 29 30 29 28 27 21 16 13 7 6 11 12 16 29 31 25 31 42 48 52 54 54 57 60 62 62 63 63 61 59 58 55 50 46 46 49 50 47 46 47 48 50 52 54 57 59 59 59 58 58 56 55 56 55 54 54 54 54 51 47 44 40 37 36 36 36 38 40 39 36 33 30 28
29 21 24 37 42 33 26 20 12 12 20 28 31 32 32 32 31 22 14 19 22 16 13 11 11 23 32 25 27 44 52 52 53 53 56 62 64 66 67 65 62 60 60 56 50 47 48 51 51 46 42 44 47 49 52 54 57 59 57 57 57 58 58 57 56 57 56 56 55 55 53 50 45 41 38 35 35 36 37 38 38 35 32 28 26 25
31 25 28 38 38 31 26 19 14 18 29 35 35 36 36 34 31 19 11 20 29 26 24 18 14 21 27 27 40 53 53 53 56 56 61 66 68 69 67 63 62 60 57 50 46 47 52 53 50 46 45 48 50 53 55 57 57 56 56 57 58 58 58 57 57 57 57 57 56 55 52 47 42 38 36 34 34 36 38 38 35 31 28 26 24 22
28 24 33 43 40 35 30 24 24 30 36 39 37 37 37 35 32 25 21 24 23 20 20 14 11 21 32 39 50 54 55 58 58 59 64 68 69 66 63 62 61 56 51 46 47 53 57 56 53 52 54 55 55 56 56 55 55 54 57 59 59 58 58 57 58 58 58 58 57 53 48 44 39 35 34 34 35 37 38 36 31 27 24 23 21 17
24 23 31 33 29 32 31 26 31 38 38 37 37 37 35 33 29 27 31 30 17 13 18 13 12 28 43 51 55 56 57 60 59 63 66 66 64 62 60 60 56 51 49 49 55 61 61 59 59 59 57 54 54 54 54 53 54 56 59 58 57 56 56 56 57 58 58 57 54 49 44 40 36 33 33 34 36 38 36 31 26 22 21 20 17 13
25 25 26 18 11 13 17 20 30 39 40 38 37 35 33 30 25 26 33 29 17 20 25 18 22 43 57 57 57 58 59 61 65 68 67 63 60 60 59 56 52 51 50 53 61 64 63 62 61 55 49 48 51 54 54 53 55 56 56 54 54 55 56 57 58 57 56 52 48 44 39 36 33 32 33 35 37 37 32 25 20 18 18 17 14 12
28 27 25 22 19 19 23 27 28 31 36 38 38 36 32 24 21 26 28 24 24 30 32 30 38 54 61 58 56 59 62 66 69 68 65 61 60 60 56 52 51 52 54 60 65 65 62 60 55 48 48 52 54 54 52 51 52 53 53 54 55 56 57 57 55 52 49 46 42 39 35 32 31 32 34 36 37 33 26 20 16 15 16 15 12 11
30 29 27 30 32 30 30 30 28 29 34 35 35 34 29 21 23 29 26 25 29 27 30 45 54 53 56 56 54 60 67 69 69 65 62 62 62 59 54 51 53 57 62 65 65 62 59 55 53 53 55 54 51 47 47 48 50 52 54 56 56 55 53 51 49 46 43 40 38 34 31 31 31 33 36 36 33 26 20 16 14 13 13 12 11 9
30 30 32 35 37 34 29 27 30 33 34 34 32 28 23 23 30 32 29 31 32 25 34 53 55 48 51 54 55 64 68 67 66 63 63 65 63 56 52 54 59 63 67 66 62 60 58 56 55 54 50 47 45 45 46 48 52 55 56 56 54 51 48 45 43 41 39 36 33 31 30 30 32 35 35 32 26 19 15 13 12 11 11 10 9 7
30 33 34 36 41 37 28 29 35 37 35 33 26 19 20 28 32 32 33 38 40 41 46 50 49 47 48 52 59 67 67 65 65 65 66 65 57 51 53 59 64 67 67 64 62 60 59 57 55 50 48 47 47 48 50 52 55 56 54 52 49 46 44 42 39 37 35 32 31 29 30 31 34 35 32 25 18 14 13 11 10 10 9 8 7 6
32 35 34 36 42 38 32 34 40 38 32 25 17 17 25 34 34 34 39 46 49 51 50 47 47 48 48 55 65 69 67 66 66 67 67 61 51 51 58 64 67 67 65 63 62 60 58 57 55 53 51 50 50 53 55 55 54 51 49 47 45 43 41 38 36 33 31 30 29 29 31 33 34 32 25 18 14 11 11 10 9 8 7 5 5 5
33 35 36 37 38 38 37 39 43 37 21 12 14 24 31 33 34 38 44 48 47 49 51 50 48 48 54 64 70 69 66 63 63 65 64 55 50 55 63 67 67 66 64 63 62 58 56 56 56 55 53 52 53 55 54 53 51 47 45 43 41 39 38 35 33 31 29 28 29 30 32 33 31 24 18 14 12 10 9 8 8 6 3 2 3 5
33 36 39 36 34 39 40 41 44 33 12 7 21 32 32 31 34 42 49 50 47 49 50 45 44 52 63 69 70 68 63 59 61 66 61 52 53 61 65 67 66 65 63 63 60 56 55 56 56 55 55 54 53 51 49 48 46 43 41 40 38 36 34 32 30 28 28 28 29 31 32 30 23 17 13 11 10 8 7 6 4 2 2 2 4 6
33 35 36 31 32 38 41 45 43 24 8 16 28 28 29 31 38 47 54 54 53 52 46 41 49 61 68 67 66 66 63 61 65 65 57 52 57 64 67 66 65 64 64 63 61 59 58 57 55 53 52 50 48 46 44 42 41 39 38 36 34 32 30 29 28 27 27 28 30 31 29 23 16 13 11 10 8 7 5 3 3 4 4 4 5 5
34 35 33 32 31 32 37 41 31 14 13 26 25 21 26 35 46 56 58 56 54 49 43 47 58 66 67 66 65 63 63 66 68 64 58 57 61 65 67 66 64 64 65 65 63 61 60 57 53 49 47 45 44 44 42 39 38 36 34 32 31 30 29 27 26 26 27 28 30 29 22 15 12 12 10 9 8 6 5 6 7 6 5 5 4 4
34 33 32 33 30 29 32 26 13 15 24 22 17 22 32 42 52 57 59 58 49 38 40 54 64 66 65 65 65 65 66 67 67 64 62 63 65 65 65 64 64 63 64 65 62 59 56 53 49 46 44 43 42 41 40 38 36 34 32 31 30 28 27 26 25 25 27 29 28 23 15 11 10 11 11 9 8 8 9 9 8 6 6 6 5 5
31 31 32 31 26 27 32 28 24 25 20 14 20 32 40 47 51 52 55 52 39 33 47 61 66 65 64 63 65 67 67 68 67 66 65 65 66 65 64 63 62 63 64 64 60 55 51 47 44 43 41 40 39 38 37 36 34 33 32 30 28 26 25 24 24 25 27 27 22 14 10 10 10 10 11 10 10 10 10 8 8 7 7 7 7 6
29 29 29 27 24 26 28 27 25 18 10 16 29 36 43 50 53 53 51 41 33 43 59 65 64 64 63 61 64 65 65 68 70 68 67 67 66 66 64 62 62 63 63 61 57 52 47 44 42 40 39 38 37 36 36 35 34 32 30 29 27 25 23 23 24 25 27 23 15 9 9 10 10 10 10 10 10 10 9 8 8 8 7 7 7 7
28 28 28 26 25 27 24 16 10 8 14 26 33 39 47 52 54 54 44 35 44 59 63 63 63 61 60 60 62 63 63 66 68 68 67 66 65 65 65 63 63 64 61 56 52 48 45 42 40 37 36 36 35 36 35 34 33 31 29 28 26 24 24 24 25 27 26 18 10 8 9 9 10 10 10 10 9 8 8 8 9 8 7 7 7 9
28 28 28 27 27 28 24 16 13 14 20 28 36 46 52 52 51 43 30 36 59 65 60 62 61 57 58 59 60 61 61 60 64 66 65 65 65 65 64 63 64 64 60 53 47 44 42 41 39 38 37 37 37 37 36 34 32 31 29 27 25 24 24 25 26 28 24 14 8 8 9 9 9 9 9 8 8 8 9 9 8 8 7 7 8 8
28 28 29 29 31 30 23 20 23 22 23 31 43 51 53 51 47 36 29 45 63 62 58 61 58 55 58 58 58 60 60 57 60 62 63 64 66 65 63 62 63 62 57 50 45 42 40 38 38 38 39 39 38 37 35 34 32 29 28 26 25 24 24 25 27 27 21 11 7 8 8 8 8 8 8 7 7 9 9 9 8 8 8 9 8 6
28 28 29 31 32 30 26 26 26 24 30 42 49 50 49 48 44 41 45 54 58 57 58 57 54 55 58 57 57 59 59 58 59 60 62 64 64 64 64 63 63 61 54 47 44 42 39 38 39 39 39 39 38 37 35 33 31 29 27 26 25 25 25 25 26 25 18 8 6 7 7 8 8 8 7 7 8 9 9 9 9 8 9 9 7 7
25 26 28 32 32 30 27 23 18 20 35 48 48 47 49 46 42 46 53 54 54 56 56 53 53 55 55 56 58 58 58 59 59 60 62 63 63 64 63 62 62 60 53 47 44 43 42 41 42 42 41 40 38 36 35 33 31 29 27 26 25 25 25 25 25 23 14 5 5 6 7 7 8 8 8 8 9 9 10 10 10 9 8 7 7 9
25 25 25 28 28 25 23 20 19 26 40 46 44 44 45 43 43 47 50 53 55 55 52 52 54 53 53 56 59 58 59 59 59 60 62 63 63 64 62 61 62 60 53 47 44 43 43 44 44 43 41 39 37 36 35 33 31 29 28 26 25 24 24 24 23 20 11 3 5 6 6 7 8 8 7 8 8 9 9 9 9 8 6 5 8 11
26 27 27 28 28 26 26 28 32 38 41 41 41 42 42 42 44 46 48 51 53 51 51 52 53 52 53 56 57 58 59 58 59 60 61 62 63 63 62 62 61 60 55 48 44 43 44 45 44 42 39 38 37 37 36 34 33 30 29 27 25 24 23 22 21 17 8 3 5 6 6 6 7 7 7 8 8 9 9 9 7 6 5 5 8 11
27 28 29 31 32 33 32 33 36 40 41 40 41 41 42 44 45 46 49 51 51 50 49 50 50 51 53 55 57 58 58 58 60 60 60 62 63 62 62 62 60 60 56 49 45 45 45 44 43 40 38 38 38 37 37 36 34 32 30 28 26 24 22 20 18 14 4 4 6 6 6 6 7 8 8 9 8 8 9 8 6 6 6 6 8 11
29 30 31 33 35 36 35 35 37 41 41 40 40 41 43 45 45 46 49 51 50 49 48 48 49 51 52 54 57 57 57 58 59 59 59 61 62 62 63 62 60 60 57 50 46 45 46 45 43 40 39 40 39 38 37 36 36 34 31 28 25 23 21 18 15 10 1 6 8 7 7 7 7 8 8 8 7 8 8 7 6 6 5 6 8 10
30 31 32 35 36 37 37 38 40 42 41 39 40 43 45 45 45 47 49 49 48 47 47 47 49 51 52 54 56 57 57 57 58 59 60 61 61 62 63 62 61 60 57 52 47 45 46 46 42 40 40 40 40 39 38 37 37 35 32 29 25 21 19 16 12 6 3 8 9 8 7 7 8 8 8 7 7 8 8 7 6 5 4 6 7 7
32 32 33 36 38 38 38 40 42 43 43 42 43 44 45 45 46 47 49 48 47 47 47 47 48 50 52 54 55 56 57 56 57 58 59 60 61 62 62 62 62 60 58 53 47 44 46 45 41 40 41 40 40 40 38 38 38 36 33 29 24 20 17 13 10 4 6 10 10 9 8 8 8 8 8 8 8 7 7 6 5 4 4 5 6 6
33 33 33 36 39 39 39 40 42 43 44 44 43 44 45 45 46 48 49 48 47 48 49 49 49 49 51 53 55 56 56 56 57 57 58 60 61 62 62 63 61 60 58 55 48 44 44 43 40 39 39 40 40 40 39 38 37 35 33 29 24 20 16 12 8 2 8 12 10 9 9 8 7 7 8 8 8 7 6 5 5 5 5 5 6 7
33 34 34 35 38 39 38 39 40 41 43 43 43 44 44 44 46 48 48 48 48 49 49 50 50 50 50 52 53 55 55 56 56 56 57 59 60 61 62 62 62 60 58 56 51 46 44 43 40 38 39 41 41 40 39 38 36 35 32 28 25 21 16 11 7 3 10 12 11 10 9 8 7 6 6 6 6 6 5 5 6 5 5 5 7 8
Wind_Direction
346 345 344 342 341 340 338 336 333 328 322 320 318 316 315 313 314 318 320 320 321 316 313 315 315 311 312 318 321 319 314 314 314 310 308 306 300 291 275 262 258 256 256 257 258 261 263 265 266 267 267 268 269 271 274 278 283 288 294 299 303 305 306 308 310 310 310 310 309 308 306 305 304 303 302 301 300 300 300 299 298 296 295 294 292 290
348 347 344 342 342 340 337 334 332 328 325 322 321 318 316 317 317 318 320 321 323 318 313 316 314 310 314 319 320 321 320 319 316 311 310 308 303 294 279 264 258 255 255 256 258 260 261 263 264 264 264 266 269 273 278 284 291 297 303 306 308 310 312 314 314 313 313 312 310 308 306 305 304 303 301 299 297 296 296 295 294 294 293 292 291 289
353 348 345 343 341 340 337 334 331 329 327 325 324 321 318 322 322 319 322 324 323 318 314 315 312 312 318 322 324 329 322 320 318 315 314 310 305 296 281 266 259 255 254 255 256 257 258 259 260 260 262 268 273 280 286 293 299 305 309 311 313 315 316 316 315 314 313 311 310 308 307 306 305 303 301 298 296 295 294 293 292 291 291 291 290 288
356 348 344 343 341 341 339 336 332 328 328 327 326 323 320 325 326 320 322 323 320 316 313 314 313 315 321 327 329 327 322 322 321 317 316 311 305 296 282 267 258 254 253 253 253 254 254 254 256 259 265 274 282 289 297 303 308 312 315 317 318 319 318 317 315 314 312 310 309 308 307 306 305 304 302 299 298 296 295 293 292 290 290 289 288 286
353 347 345 344 342 343 342 338 333 328 327 328 329 326 322 325 325 319 320 320 317 316 315 318 318 315 318 324 322 322 321 321 320 318 317 312 305 293 279 265 255 251 251 251 250 249 249 252 258 266 276 286 295 302 308 312 315 317 319 321 322 321 319 318 316 314 312 311 310 309 308 307 306 304 303 302 300 298 297 295 292 290 288 287 285 283
350 349 346 347 347 346 345 339 335 332 328 329 334 330 324 324 323 319 321 320 316 316 316 319 321 310 308 312 316 319 321 320 321 320 318 315 304 290 276 261 251 247 246 244 244 244 248 256 268 280 292 302 308 312 315 318 320 321 323 324 323 321 319 318 316 315 313 312 312 311 310 309 308 307 305 304 302 301 299 296 293 290 288 286 284 282
351 351 349 352 353 347 346 342 340 337 329 329 333 330 325 323 321 320 322 317 310 306 305 309 305 289 301 311 317 320 323 322 323 323 321 315 302 286 267 253 244 241 239 239 241 247 258 275 288 299 307 312 315 317 319 321 322 323 324 323 322 320 319 318 316 315 315 314 314 313 312 311 309 307 305 303 302 300 298 296 294 292 290 288 285 283
352 353 353 357 354 348 349 348 343 338 329 328 331 327 323 323 322 322 321 312 304 302 303 308 303 278 292 312 324 322 324 326 326 326 321 311 295 274 254 243 237 234 236 241 250 262 282 298 306 311 314 317 319 321 321 322 322 322 322 322 320 319 318 317 317 316 316 316 315 314 312 310 308 306 303 301 299 298 296 294 293 292 291 289 286 283
354 356 358 357 353 351 353 349 343 337 330 330 330 326 325 325 324 324 321 313 307 302 304 317 322 288 291 314 326 323 325 329 328 324 316 301 280 257 242 235 233 236 244 257 274 291 304 310 313 315 317 319 321 322 322 322 322 321 321 319 318 317 316 316 317 317 317 317 316 314 312 308 306 303 301 300 298 297 296 294 293 292 290 288 284 280
356 359 0 355 354 355 353 348 344 338 334 333 331 327 328 329 330 331 327 323 318 298 296 331 345 322 306 314 323 326 325 327 325 318 305 285 261 245 238 234 237 249 264 282 299 307 310 313 315 318 319 321 322 323 322 322 321 321 319 317 316 315 316 317 319 320 319 317 315 313 310 308 305 304 302 301 300 299 298 296 295 293 290 286 282 279
1 3 1 356 357 356 352 351 346 341 339 338 335 332 331 333 337 337 333 336 330 295 301 334 333 325 305 310 317 320 321 324 322 314 295 272 253 243 242 244 256 274 290 303 309 311 313 316 317 319 321 322 323 323 322 321 319 318 316 314 314 315 317 319 320 321 319 317 315 313 310 309 307 306 305 304 303 302 300 298 296 293 289 285 282 280
8 6 1 359 1 358 352 349 346 344 346 342 340 342 338 336 341 339 332 342 342 283 312 321 322 320 290 296 309 313 317 320 318 309 285 263 252 248 253 267 284 299 308 312 314 315 317 319 320 322 323 322 322 321 319 317 315 314 312 313 314 316 319 320 321 321 319 316 314 313 311 310 308 307 307 306 305 304 302 299 297 293 289 285 282 280
7 5 360 0 1 359 352 347 345 346 347 344 345 351 350 342 343 339 328 335 279 286 310 316 318 311 284 292 306 312 316 316 311 299 279 261 252 260 278 293 304 312 315 316 317 319 320 321 322 322 321 320 319 318 316 314 312 311 312 314 315 317 320 319 320 321 319 316 314 313 312 310 308 308 307 306 305 303 302 299 296 293 289 285 282 281
1 3 358 358 359 359 354 348 345 341 344 348 351 355 360 355 336 320 311 320 293 300 309 313 311 299 291 301 310 313 313 311 303 292 275 262 265 287 303 310 315 318 319 320 321 321 321 322 321 320 319 318 316 315 313 311 311 311 312 313 314 316 317 317 318 320 319 316 314 313 311 309 308 308 307 306 304 303 301 299 295 292 288 285 283 282
352 352 352 353 356 357 353 350 344 338 342 349 352 355 356 343 326 282 290 300 294 302 306 310 307 293 309 315 315 314 312 306 299 289 275 271 288 307 314 319 321 322 322 322 322 321 321 321 320 319 318 317 316 313 311 310 311 311 311 312 313 314 315 316 318 320 318 315 313 312 311 310 309 308 307 305 304 302 300 297 294 290 287 285 284 283
339 334 347 350 352 354 351 349 345 342 346 347 348 352 344 336 317 287 294 294 296 300 303 312 309 308 317 316 314 313 308 303 297 285 279 287 309 318 320 323 323 323 324 324 323 322 322 321 321 320 320 319 316 311 310 311 311 311 311 311 312 314 316 319 320 320 319 315 312 312 312 312 311 308 306 305 303 301 298 295 293 289 286 285 284 283
333 331 348 354 351 353 351 348 348 349 349 346 347 347 340 336 324 304 303 306 312 306 302 313 310 313 318 315 313 311 305 303 295 288 294 310 321 321 320 321 321 323 325 325 324 324 323 323 322 321 321 320 316 312 311 310 308 308 309 310 313 317 319 321 321 322 320 316 314 314 315 314 312 309 307 305 302 299 296 293 291 289 287 286 285 285
332 331 347 355 350 351 350 346 349 351 353 351 347 344 341 338 332 323 310 312 321 297 296 309 311 317 320 319 322 319 311 308 306 309 316 321 321 319 319 321 323 326 326 325 325 325 324 324 323 323 323 321 318 313 308 305 304 307 309 313 317 320 321 321 321 321 319 318 316 316 317 315 312 310 308 306 302 298 296 293 292 291 290 289 288 286
340 331 340 348 348 349 348 346 346 349 355 354 346 344 346 336 323 327 318 306 315 302 298 307 312 318 321 323 325 321 318 321 322 323 322 321 321 323 325 327 328 328 327 326 326 325 325 324 324 326 324 320 314 307 303 304 307 310 313 318 320 320 321 321 320 319 318 317 317 317 317 315 313 311 309 306 302 299 297 296 296 295 294 293 290 287
348 329 326 338 344 346 349 348 348 348 349 349 347 347 346 337 323 322 316 303 307 310 305 309 312 322 328 324 323 326 330 329 326 324 323 324 327 329 331 330 330 328 326 326 326 326 325 325 326 325 321 315 309 305 306 308 310 314 317 319 319 319 321 320 319 319 318 318 317 317 317 316 314 312 309 306 302 300 299 299 300 299 297 294 290 287
350 329 312 331 342 348 351 349 346 343 341 343 345 346 344 341 337 330 321 315 313 303 306 313 307 315 323 323 326 335 335 329 325 326 327 329 331 332 331 330 328 326 325 327 328 326 324 324 324 323 318 314 310 308 309 311 313 316 317 318 319 320 321 320 319 319 319 319 318 318 318 317 315 312 309 306 303 302 302 303 303 300 296 292 289 287
347 333 315 328 340 346 348 347 340 334 340 343 343 344 344 341 341 339 323 318 317 306 299 297 290 311 320 323 330 334 331 327 326 326 328 330 330 330 328 327 326 326 328 329 328 324 322 323 323 321 317 313 311 309 310 311 313 315 317 318 320 320 320 320 319 319 319 319 318 319 319 317 315 312 309 307 305 305 306 307 305 299 294 291 289 287
345 339 328 329 336 344 348 350 347 343 343 343 343 344 342 339 340 336 308 309 312 304 300 291 283 309 321 326 329 329 327 324 322 323 325 328 328 328 328 328 329 329 329 328 324 323 324 324 322 319 315 313 311 311 310 311 313 315 317 319 319 319 319 318 319 318 318 318 318 319 319 317 315 312 309 308 308 309 310 309 305 297 293 293 291 288
348 345 337 333 337 344 346 345 344 344 343 341 341 342 339 335 332 325 315 314 306 299 310 306 287 309 320 325 326 325 323 321 321 324 328 329 328 329 329 330 330 329 327 324 322 323 324 322 320 318 316 314 313 312 312 313 315 316 317 317 317 317 317 318 318 317 317 318 318 319 318 316 315 312 310 310 311 312 312 310 303 297 296 297 294 289
352 350 343 340 341 344 345 342 338 337 337 335 336 338 334 328 324 323 327 327 313 301 321 318 289 307 319 324 324 322 321 322 325 329 330 330 330 331 331 330 329 326 322 320 321 322 323 321 320 319 317 315 314 314 315 315 314 314 315 316 317 317 317 317 316 315 316 317 318 318 317 316 314 312 311 312 313 314 313 309 303 299 299 298 293 288
351 351 350 347 340 331 327 324 326 327 327 328 332 333 329 326 327 330 331 329 320 313 314 304 297 311 322 326 323 322 325 328 330 331 331 332 332 332 332 329 327 324 319 317 321 324 324 323 322 321 319 317 316 315 315 314 313 314 316 318 319 318 316 315 314 315 317 317 318 318 318 316 314 313 313 314 316 316 313 307 301 299 298 295 289 283
349 349 349 341 327 316 312 316 325 326 322 325 332 329 324 324 328 332 332 328 324 319 315 316 318 318 323 325 323 326 330 332 331 331 332 334 333 333 332 328 325 322 318 319 324 326 326 325 324 323 320 318 317 315 314 314 314 316 318 319 318 316 314 314 316 317 318 319 320 319 318 317 315 315 316 317 318 316 312 305 299 299 299 294 290 285
346 345 345 337 329 329 328 327 332 331 324 326 327 321 319 322 328 334 337 336 335 327 316 323 326 321 321 324 327 331 333 332 331 332 334 334 335 335 332 326 323 321 322 325 328 328 328 327 326 324 322 321 320 318 317 316 316 317 318 318 317 316 316 318 319 320 321 321 321 320 319 318 316 317 319 319 319 316 310 305 302 303 302 295 290 288
345 343 341 336 332 336 339 335 335 334 330 327 321 313 315 321 329 336 339 340 341 328 314 322 325 320 321 327 331 332 332 330 331 334 335 335 337 336 330 324 323 324 327 330 331 331 330 328 327 327 325 324 321 319 318 317 317 318 318 318 318 319 321 322 322 323 324 324 323 322 320 319 319 321 321 321 320 316 309 306 305 306 303 295 289 287
346 342 340 336 333 339 346 340 338 338 332 325 316 308 316 325 332 338 339 340 338 327 322 324 322 321 326 331 331 330 330 331 333 335 336 338 339 333 326 325 327 330 332 333 333 332 330 329 330 330 328 325 322 320 318 318 319 319 319 320 321 323 325 325 326 326 327 326 325 323 322 322 323 324 323 322 321 316 308 305 305 306 302 294 290 293
344 341 342 337 332 341 350 342 339 341 333 319 305 307 322 329 333 336 337 338 335 329 328 327 323 327 332 331 329 330 332 333 335 336 339 341 338 329 326 329 332 333 335 334 334 332 330 331 333 332 329 326 323 320 319 320 321 321 321 323 324 326 327 328 329 330 329 327 325 324 324 325 325 325 324 323 323 316 308 304 304 306 302 294 298 310
343 341 343 340 331 337 347 341 340 343 333 303 313 325 330 331 331 332 336 339 335 330 330 330 329 331 330 329 330 333 334 334 335 337 341 341 335 329 330 334 335 335 336 335 334 333 333 333 332 330 327 324 322 321 321 322 324 325 326 326 327 329 330 331 332 332 331 328 327 327 327 326 326 326 325 327 326 319 312 307 306 309 313 315 327 329
343 342 344 344 330 332 343 341 339 347 347 325 335 330 324 325 328 333 337 339 336 333 331 330 328 328 328 330 332 334 334 334 335 339 342 340 333 332 334 336 336 336 336 335 336 335 332 330 329 327 325 324 324 324 324 325 327 328 329 329 330 332 333 334 335 333 332 330 329 329 329 328 329 331 333 334 332 328 326 318 317 352 46 26 359 341
343 342 344 344 331 331 340 340 342 358 10 327 327 319 314 324 334 337 337 337 335 333 331 327 325 327 331 333 334 335 335 336 338 341 341 338 334 335 337 338 337 337 337 337 337 335 332 331 331 329 327 327 327 328 329 330 330 331 331 332 334 336 337 338 337 335 333 332 331 331 332 333 337 342 347 347 344 346 356 11 57 78 71 35 7 355
341 342 344 345 335 330 338 344 351 4 331 318 316 312 318 330 335 334 333 333 334 331 328 327 329 331 334 334 335 336 337 338 341 342 341 339 338 338 338 338 339 338 338 338 337 335 334 335 336 334 332 332 332 333 334 335 334 335 337 338 339 340 340 340 338 336 335 335 334 335 338 344 350 356 2 5 8 24 56 81 87 80 57 26 13 21
341 343 345 346 341 335 339 345 342 325 324 323 319 323 330 335 336 334 331 332 333 329 326 329 332 334 335 335 337 339 339 339 342 344 344 342 341 341 340 339 340 340 339 338 337 336 337 338 338 337 336 336 336 336 337 338 340 341 342 342 343 343 342 341 339 338 338 338 337 339 349 3 6 9 17 27 44 69 86 87 78 61 38 31 36 50
342 343 345 346 346 341 336 330 324 327 334 337 333 333 334 334 335 334 329 327 328 328 330 333 333 334 336 337 339 340 339 339 342 346 346 344 342 342 340 340 342 342 340 338 338 339 339 339 340 340 339 340 340 340 340 342 344 344 344 344 345 344 344 341 339 340 342 341 342 350 10 23 23 24 33 50 69 81 85 76 62 54 47 46 52 57
342 344 346 345 342 341 338 331 332 337 334 331 332 331 330 331 333 331 326 324 331 335 334 334 334 334 336 338 340 340 339 339 342 345 345 344 343 342 341 342 344 343 341 339 338 340 341 343 345 344 342 343 344 344 345 345 345 345 345 345 346 346 344 341 340 345 348 347 353 16 32 36 37 39 50 65 74 77 75 64 58 60 59 57 62 66
343 344 346 344 341 341 338 328 317 303 309 323 326 325 329 332 333 331 328 330 337 337 335 334 335 335 337 339 339 340 340 339 340 343 344 343 342 342 343 344 345 344 343 341 339 342 344 346 348 348 347 347 348 348 347 346 346 346 346 346 346 346 343 341 344 350 353 356 16 41 44 46 50 53 61 68 71 71 68 63 62 62 61 66 76 75
346 345 345 345 343 340 335 319 305 302 308 318 325 329 331 332 332 335 336 333 335 336 334 334 335 336 338 339 340 341 342 339 338 340 342 341 342 344 345 345 345 345 344 343 343 345 348 348 350 351 351 352 351 349 347 347 347 347 346 346 346 345 343 343 347 353 358 7 37 54 54 55 58 64 67 67 66 65 63 61 57 53 58 76 86 79
347 346 346 345 342 340 335 317 311 316 321 327 331 332 330 331 337 342 333 326 330 333 333 334 336 338 339 340 341 342 342 341 338 339 341 342 343 346 346 346 346 346 345 345 346 348 350 352 352 352 352 351 349 347 346 347 346 346 346 345 344 345 344 344 349 355 0 15 51 63 63 64 67 70 68 65 66 65 61 55 50 55 71 82 80 68
344 343 344 344 342 340 334 322 320 329 335 334 333 330 331 336 339 334 327 327 330 331 332 335 338 339 339 341 341 341 342 342 342 341 342 344 345 347 347 347 347 347 347 347 348 349 352 353 353 352 351 348 347 346 345 345 345 346 345 343 343 344 343 344 349 355 1 20 65 72 72 75 77 74 70 69 70 67 60 57 61 75 84 80 65 41
341 340 340 343 342 337 333 332 334 332 329 331 332 332 334 337 333 327 328 332 333 332 333 337 339 340 339 340 341 342 343 343 344 344 344 345 347 348 348 348 348 349 350 349 349 351 352 353 352 351 350 349 347 347 345 344 344 344 343 342 342 341 341 342 348 354 1 32 85 81 81 83 82 82 81 76 71 66 62 67 80 90 89 76 55 32
340 338 334 337 339 333 325 327 327 323 325 330 332 330 330 331 330 329 331 333 335 335 336 337 340 341 341 340 341 343 344 344 345 345 346 347 348 349 349 349 349 350 351 351 351 351 352 352 352 351 352 352 351 350 349 346 344 343 341 339 338 338 338 340 346 352 1 59 103 93 95 92 85 87 88 80 74 69 68 76 88 95 92 68 45 29
339 337 331 331 333 329 325 327 329 329 332 333 331 329 329 331 332 333 334 334 335 337 337 338 340 342 342 341 342 344 344 344 346 347 347 348 348 349 350 351 351 351 352 352 352 352 353 352 352 353 355 356 356 355 353 349 345 343 341 339 337 336 335 337 345 352 1 110 122 108 109 101 89 88 89 86 84 79 75 77 82 88 82 58 37 22
339 337 332 331 331 330 333 335 332 332 335 334 331 331 332 333 335 337 337 337 337 338 339 339 340 342 343 343 343 345 345 345 346 348 348 348 349 350 351 352 352 353 353 353 353 354 354 353 353 355 358 359 359 357 354 351 348 346 344 342 340 337 334 336 344 352 2 143 136 123 119 109 95 90 89 88 87 84 77 72 77 85 76 50 26 11
341 338 333 332 331 330 334 337 333 332 336 336 332 331 333 336 339 339 338 339 339 339 341 341 342 343 345 343 343 346 346 346 347 348 349 349 350 351 351 353 354 354 354 354 354 354 354 354 355 357 359 359 359 357 353 352 350 349 348 346 344 341 336 336 344 353 34 151 144 134 128 115 103 98 93 90 91 93 87 79 82 89 70 33 13 1
340 338 335 333 332 331 334 336 336 335 337 336 333 333 335 338 339 340 340 340 339 338 341 344 345 345 345 345 345 346 346 347 348 349 349 350 351 351 352 353 354 355 356 356 355 355 355 355 356 357 359 359 358 355 354 353 352 351 351 350 349 347 341 337 344 358 141 155 146 138 132 121 112 104 95 94 100 101 95 88 86 85 53 16 1 353
339 339 336 332 333 336 338 338 338 337 338 338 336 335 337 339 340 341 341 340 338 339 343 346 347 346 346 346 346 346 347 348 349 349 350 350 351 352 353 354 355 356 356 356 357 356 356 356 356 357 359 359 357 355 355 354 353 353 354 354 355 353 347 342 347 5 154 156 148 141 134 125 117 106 96 98 104 101 94 88 78 62 31 5 358 358
338 338 337 333 334 338 339 338 338 338 338 338 336 334 337 340 341 342 342 341 341 343 345 347 348 348 347 347 346 347 348 349 350 351 351 350 351 353 353 354 355 356 356 357 357 357 357 357 357 358 360 359 358 357 356 354 354 354 356 358 359 358 355 351 354 39 151 155 150 143 136 129 121 109 98 96 98 100 100 91 70 45 18 3 7 10
338 338 337 335 335 338 338 338 338 338 336 335 335 335 338 340 341 342 343 343 344 346 346 346 347 348 349 348 347 347 348 349 350 351 352 351 352 353 354 354 355 356 357 357 357 358 358 358 358 359 1 1 0 359 357 355 355 356 358 0 1 360 360 2 10 103 148 152 148 143 138 133 124 114 108 103 97 98 98 86 70 50 24 17 20 19